Location: Molveno
(46.1500°N, 10.9667°E)
Time: 01:41:48
(UTC+00:00)

Cosmos 1538 Rocket - Pass Details

Date: 05 July 2020
Orbit: 753 x 791 km, 74.0° (Epoch: 11 August)

Event Time Altitude Azimuth Distance (km) Brightness Sun altitude
Exits shadow 20:35:04 - 177° (S) 2,409 6.1 -11.6°
Reaches altitude 10° 20:35:14 10° 176° (S) 2,346 6.0 -11.6°
Maximum altitude 20:40:20 47° 104° (ESE) 1,040 4.4 -12.2°
Drops below altitude 10° 20:45:24 10° 32° (NNE) 2,345 6.8 -12.7°
Sets 20:47:52 0° 27° (NNE) 3,272 7.6 -12.9°
